Weather History for KEDJ - December, 2012

Change the Weather History Date:

Thursday, December 27, 2012

  Actual Average (KDAY) Record (KDAY)
Temperature  
Mean Temperature 26 °F 28 °F  
Max Temperature 28 °F 35 °F 66 °F (2008)
Min Temperature 23 °F 22 °F -4 °F (1950)
Degree Days  
Heating Degree Days 40 37  
Month to date heating degree days 900  
Since 1 July heating degree days 2011  
Cooling Degree Days 0 0  
Month to date cooling degree days 0  
Year to date cooling degree days 891  
Moisture  
Dew Point 24 °F    
Average Humidity 90    
Maximum Humidity 100    
Minimum Humidity 80    
Precipitation  
Precipitation 0.00 in 0.10 in 1.48 in (1982)
Month to date precipitation 2.72  
Year to date precipitation 40.65  
Snow  
Snow 0.00 in 0.20 in 4.90 in (1939)
Month to date snowfall 3.7  
Since 1 July snowfall 4.7  
Snow Depth -    
Sea Level Pressure  
Sea Level Pressure 30.02 in    
Wind  
Wind Speed 11 mph (WNW)    
Max Wind Speed 18 mph    
Max Gust Speed 24 mph    
Visibility 10 miles    
Events      
T = Trace of Precipitation, MM = Missing Value Source: NWS Daily Summary

Daily Weather History Graph

Daily Weather History Graph

Search for Another Location

Airport or City:

Trip Planner

Search our weather history database for the weather conditions in past years. The results will help you decide how hot, cold, wet, or windy it might be!

Date:

Astronomy

Dec. 27, 2012 Rise Set
Actual Time 7:57 AM EST 5:16 PM EST
Civil Twilight 7:26 AM EST 5:46 PM EST
Nautical Twilight 6:52 AM EST 6:21 PM EST
Astronomical Twilight 6:19 AM EST 6:54 PM EST
Moon 4:58 PM EST (12/27) 7:07 AM EST (12/27)
Length of Visible Light 10h 20m
Length of Day
9h 18m
Full, 100% of the Moon is Illuminated
Dec 27
Full
Dec 28
Full
Jan 4
Last Quarter
Jan 11
New
Jan 18
First Quarter

Hourly Weather History & Observations

Time (EST) Temp. Windchill Dew Point Humidity Pressure Visibility Wind Dir Wind Speed Gust Speed Precip Events Conditions
12:05 AM 26.6 °F 13.4 °F 24.8 °F 93% 29.81 in 10.0 mi NNW 18.4 mph 24.2 mph 0.00 in   Overcast
12:25 AM 26.6 °F 14.7 °F 24.8 °F 93% 29.82 in 10.0 mi NNW 15.0 mph 23.0 mph 0.00 in   Overcast
12:45 AM 26.6 °F 14.7 °F 23.0 °F 86% 29.82 in 10.0 mi NW 15.0 mph - 0.00 in   Overcast
1:05 AM 26.6 °F 15.7 °F 23.0 °F 86% 29.82 in 10.0 mi NW 12.7 mph - 0.00 in   Overcast
1:25 AM 26.6 °F 15.7 °F 23.0 °F 86% 29.83 in 10.0 mi NW 12.7 mph - 0.00 in   Overcast
1:45 AM 26.6 °F 15.7 °F 24.8 °F 93% 29.84 in 10.0 mi NW 12.7 mph - 0.00 in   Overcast
2:05 AM 26.6 °F 16.2 °F 24.8 °F 93% 29.85 in 10.0 mi WNW 11.5 mph 18.4 mph 0.00 in   Overcast
2:25 AM 26.6 °F 15.7 °F 24.8 °F 93% 29.86 in 10.0 mi NW 12.7 mph 18.4 mph 0.00 in   Overcast
2:45 AM 26.6 °F 15.7 °F 24.8 °F 93% 29.87 in 10.0 mi NW 12.7 mph 17.3 mph 0.00 in   Overcast
3:05 AM 26.6 °F 15.7 °F 24.8 °F 93% 29.88 in 10.0 mi WNW 12.7 mph - 0.00 in   Overcast
3:25 AM 26.6 °F 15.2 °F 24.8 °F 93% 29.89 in 10.0 mi WNW 13.8 mph 23.0 mph 0.00 in   Overcast
3:45 AM 26.6 °F 15.2 °F 24.8 °F 93% 29.89 in 10.0 mi WNW 13.8 mph 20.7 mph 0.00 in   Overcast
4:05 AM 26.6 °F 15.2 °F 24.8 °F 93% 29.90 in 10.0 mi WNW 13.8 mph 21.9 mph 0.00 in   Overcast
4:45 AM 26.6 °F 14.7 °F 24.8 °F 93% 29.92 in 10.0 mi WNW 15.0 mph 20.7 mph 0.00 in   Overcast
5:05 AM 26.6 °F 15.2 °F 23.0 °F 86% 29.92 in 10.0 mi WNW 13.8 mph 19.6 mph 0.00 in   Overcast
5:25 AM 26.6 °F 15.2 °F 23.0 °F 86% 29.93 in 10.0 mi WNW 13.8 mph 21.9 mph 0.00 in   Overcast
5:45 AM 24.8 °F 12.9 °F 24.8 °F 100% 29.94 in 10.0 mi WNW 13.8 mph 17.3 mph 0.00 in   Overcast
6:05 AM 24.8 °F 11.9 °F 23.0 °F 93% 29.95 in 10.0 mi WNW 16.1 mph 21.9 mph 0.00 in   Overcast
6:25 AM 24.8 °F 12.9 °F 23.0 °F 93% 29.96 in 10.0 mi WNW 13.8 mph 21.9 mph 0.00 in   Overcast
6:45 AM 24.8 °F 12.4 °F 23.0 °F 93% 29.97 in 10.0 mi WNW 15.0 mph 21.9 mph 0.00 in   Overcast
7:05 AM 24.8 °F 12.9 °F 23.0 °F 93% 29.98 in 10.0 mi NW 13.8 mph - 0.00 in   Overcast
7:25 AM 24.8 °F 12.4 °F 23.0 °F 93% 29.99 in 10.0 mi WNW 15.0 mph 19.6 mph 0.00 in   Overcast
7:45 AM 24.8 °F 14.6 °F 23.0 °F 93% 29.99 in 10.0 mi NW 10.4 mph 18.4 mph 0.00 in   Overcast
8:05 AM 24.8 °F 14.6 °F 23.0 °F 93% 30.00 in 10.0 mi NW 10.4 mph - 0.00 in   Overcast
8:25 AM 24.8 °F 15.3 °F 23.0 °F 93% 30.01 in 10.0 mi NW 9.2 mph 17.3 mph 0.00 in   Overcast
8:45 AM 24.8 °F 16.1 °F 23.0 °F 93% 30.02 in 10.0 mi NW 8.1 mph - 0.00 in   Overcast
9:05 AM 24.8 °F 16.9 °F 23.0 °F 93% 30.03 in 10.0 mi WNW 6.9 mph - 0.00 in   Overcast
9:25 AM 24.8 °F 16.9 °F 23.0 °F 93% 30.04 in 10.0 mi WNW 6.9 mph - 0.00 in   Overcast
9:45 AM 26.6 °F 18.2 °F 23.0 °F 86% 30.05 in 10.0 mi WNW 8.1 mph - 0.00 in   Overcast
10:05 AM 26.6 °F 17.5 °F 23.0 °F 86% 30.05 in 10.0 mi WNW 9.2 mph - 0.00 in   Overcast
10:25 AM 26.6 °F 16.8 °F 23.0 °F 86% 30.06 in 10.0 mi NW 10.4 mph - 0.00 in   Overcast
10:45 AM 26.6 °F 19.1 °F 23.0 °F 86% 30.06 in 10.0 mi WNW 6.9 mph - 0.00 in   Overcast
11:05 AM 26.6 °F 18.2 °F 23.0 °F 86% 30.07 in 10.0 mi NW 8.1 mph - 0.00 in   Overcast
11:25 AM 26.6 °F 18.2 °F 23.0 °F 86% 30.06 in 10.0 mi WNW 8.1 mph - 0.00 in   Overcast
11:45 AM 26.6 °F 19.1 °F 23.0 °F 86% 30.06 in 10.0 mi WNW 6.9 mph - 0.00 in   Overcast
12:05 PM 26.6 °F 19.1 °F 23.0 °F 86% 30.06 in 10.0 mi West 6.9 mph - 0.00 in   Overcast
12:25 PM 26.6 °F 19.1 °F 23.0 °F 86% 30.07 in 10.0 mi West 6.9 mph - 0.00 in   Overcast
12:45 PM 26.6 °F 19.1 °F 23.0 °F 86% 30.06 in 10.0 mi WNW 6.9 mph - 0.00 in   Overcast
1:05 PM 28.4 °F 22.2 °F 23.0 °F 80% 30.05 in 10.0 mi West 5.8 mph - 0.00 in   Overcast
1:25 PM 28.4 °F 23.3 °F 23.0 °F 80% 30.05 in 10.0 mi West 4.6 mph - 0.00 in   Overcast
1:45 PM 28.4 °F 21.2 °F 23.0 °F 80% 30.05 in 10.0 mi West 6.9 mph - 0.00 in   Overcast
2:05 PM 28.4 °F 21.2 °F 23.0 °F 80% 30.05 in 10.0 mi West 6.9 mph - 0.00 in   Overcast
2:25 PM 28.4 °F 22.2 °F 23.0 °F 80% 30.06 in 10.0 mi West 5.8 mph - 0.00 in   Overcast
2:45 PM 28.4 °F 23.3 °F 23.0 °F 80% 30.05 in 10.0 mi WNW 4.6 mph - 0.00 in   Overcast
3:05 PM 28.4 °F 22.2 °F 23.0 °F 80% 30.05 in 10.0 mi WNW 5.8 mph - 0.00 in   Mostly Cloudy
3:25 PM 28.4 °F 21.2 °F 24.8 °F 86% 30.07 in 10.0 mi West 6.9 mph - 0.00 in   Overcast
3:45 PM 28.4 °F 22.2 °F 24.8 °F 86% 30.07 in 10.0 mi West 5.8 mph - 0.00 in   Overcast
4:05 PM 28.4 °F 24.6 °F 24.8 °F 86% 30.07 in 10.0 mi West 3.5 mph - 0.00 in   Mostly Cloudy
4:25 PM 28.4 °F 24.6 °F 24.8 °F 86% 30.08 in 10.0 mi West 3.5 mph - 0.00 in   Overcast
4:45 PM 28.4 °F 24.6 °F 24.8 °F 86% 30.07 in 10.0 mi West 3.5 mph - 0.00 in   Overcast
5:05 PM 28.4 °F 23.3 °F 24.8 °F 86% 30.08 in 10.0 mi West 4.6 mph - 0.00 in   Overcast
5:25 PM 26.6 °F 22.6 °F 24.8 °F 93% 30.08 in 10.0 mi West 3.5 mph - 0.00 in   Overcast
5:45 PM 26.6 °F 20.0 °F 24.8 °F 93% 30.10 in 10.0 mi WSW 5.8 mph - 0.00 in   Overcast
6:05 PM 26.6 °F 21.2 °F 24.8 °F 93% 30.10 in 10.0 mi WSW 4.6 mph - 0.00 in   Overcast
6:25 PM 26.6 °F - 24.8 °F 93% 30.10 in 10.0 mi Calm Calm - 0.00 in   Overcast
6:45 PM 26.6 °F - 24.8 °F 93% 30.11 in 10.0 mi Calm Calm - 0.00 in   Overcast
7:25 PM 26.6 °F 21.2 °F 24.8 °F 93% 30.12 in 10.0 mi WSW 4.6 mph - 0.00 in   Overcast
7:45 PM 26.6 °F 22.6 °F 24.8 °F 93% 30.13 in 10.0 mi WSW 3.5 mph - 0.00 in   Overcast
8:05 PM 28.4 °F 23.3 °F 24.8 °F 86% 30.12 in 10.0 mi West 4.6 mph - 0.00 in   Overcast
8:25 PM 28.4 °F - 24.8 °F 86% 30.12 in 10.0 mi Calm Calm - 0.00 in   Overcast
8:45 PM 28.4 °F - 24.8 °F 86% 30.12 in 10.0 mi Calm Calm - 0.00 in   Overcast
9:05 PM 26.6 °F - 24.8 °F 93% 30.12 in 10.0 mi Calm Calm - 0.00 in   Overcast
9:25 PM 26.6 °F - 24.8 °F 93% 30.12 in 10.0 mi Calm Calm - 0.00 in   Overcast
10:05 PM 24.8 °F 20.5 °F 24.8 °F 100% 30.10 in 10.0 mi South 3.5 mph - 0.00 in   Clear
10:25 PM 24.8 °F 20.5 °F 24.8 °F 100% 30.11 in 9.0 mi SSE 3.5 mph - 0.00 in   Clear
10:45 PM 24.8 °F 20.5 °F 24.8 °F 100% 30.11 in 7.0 mi SSE 3.5 mph - 0.00 in   Clear
11:05 PM - - - N/A% 30.11 in 7.0 mi South 3.5 mph - 0.00 in   Clear
11:25 PM 23.0 °F 18.4 °F 23.0 °F 100% 30.11 in 6.0 mi South 3.5 mph - 0.00 in   Clear
11:45 PM 23.0 °F 17.0 °F 23.0 °F 100% 30.11 in 6.0 mi SSE 4.6 mph - 0.00 in   Clear